Location: Rumah Long Bangan
(2.8362°N, 113.7519°E)
Time: 06:42:36
(UTC+00:00)

Envisat - Pass Details

Date: 24 October 2021
Orbit: 764 x 766 km, 98.2° (Epoch: 28 November)

Event Time Altitude Azimuth Distance (km) Brightness Sun altitude
Rises 21:11:06 0° 10° (N) 3,214 6.2 -14.8°
Reaches altitude 10° 21:13:24 10° 9° (N) 2,290 5.4 -14.2°
Maximum altitude 21:18:26 80° 282° (WNW) 776 2.9 -13.0°
Drops below altitude 10° 21:23:30 10° 195° (SSW) 2,297 5.4 -11.7°
Sets 21:25:48 0° 194° (SSW) 3,224 6.2 -11.2°
